Time,TemperatureF,DewpointF,PressureIn,WindDirection,WindDirectionDegrees,WindSpeedMPH,WindSpeedGustMPH,Humidity,HourlyPrecipIn,Conditions,Clouds,dailyrainin,SoftwareType,DateUTC
2013-07-04 00:04:00,65.3,65.0,30.18,NNW,337,2.0,2.0,98,0.00,,,0.00,weatherlink.com 1.10,2013-07-04 04:04:00,
2013-07-04 00:19:00,65.2,65.0,30.19,NW,312,0.0,2.0,98,0.00,,,0.00,weatherlink.com 1.10,2013-07-04 04:19:00,
2013-07-04 00:34:00,65.0,65.0,30.19,NW,314,0.0,3.0,98,0.00,,,0.00,weatherlink.com 1.10,2013-07-04 04:34:00,
2013-07-04 00:49:00,65.1,65.0,30.18,NW,314,1.0,2.0,98,0.00,,,0.00,weatherlink.com 1.10,2013-07-04 04:49:00,
2013-07-04 01:04:00,65.2,65.0,30.18,NW,314,0.0,1.0,98,0.00,,,0.00,weatherlink.com 1.10,2013-07-04 05:04:00,
2013-07-04 01:19:00,65.0,65.0,30.18,East,80,0.0,3.0,98,0.00,,,0.00,weatherlink.com 1.10,2013-07-04 05:19:00,
2013-07-04 01:34:00,65.2,65.0,30.18,East,80,0.0,0.0,98,0.00,,,0.00,weatherlink.com 1.10,2013-07-04 05:34:00,
2013-07-04 01:49:00,65.3,65.0,30.17,East,80,0.0,2.0,99,0.00,,,0.00,weatherlink.com 1.10,2013-07-04 05:49:00,
2013-07-04 02:04:00,65.4,65.0,30.17,East,80,0.0,0.0,99,0.00,,,0.00,weatherlink.com 1.10,2013-07-04 06:04:00,
2013-07-04 02:19:00,65.4,65.0,30.17,ENE,66,0.0,3.0,98,0.00,,,0.00,weatherlink.com 1.10,2013-07-04 06:19:00,
2013-07-04 02:34:00,65.4,65.0,30.16,NE,43,0.0,3.0,98,0.00,,,0.00,weatherlink.com 1.10,2013-07-04 06:34:00,
2013-07-04 02:49:00,65.4,65.0,30.16,East,85,0.0,2.0,98,0.00,,,0.00,weatherlink.com 1.10,2013-07-04 06:49:00,
2013-07-04 03:04:00,65.3,65.0,30.16,North,4,0.0,4.0,98,0.00,,,0.00,weatherlink.com 1.10,2013-07-04 07:04:00,
2013-07-04 03:19:00,65.4,65.0,30.15,NNE,15,0.0,4.0,98,0.00,,,0.00,weatherlink.com 1.10,2013-07-04 07:19:00,
2013-07-04 03:34:00,65.2,65.0,30.16,NW,318,0.0,4.0,98,0.00,,,0.00,weatherlink.com 1.10,2013-07-04 07:34:00,
2013-07-04 03:49:00,65.2,65.0,30.15,ENE,66,1.0,2.0,98,0.00,,,0.00,weatherlink.com 1.10,2013-07-04 07:49:00,
2013-07-04 04:04:00,65.2,65.0,30.14,ESE,102,0.0,5.0,98,0.00,,,0.00,weatherlink.com 1.10,2013-07-04 08:04:00,
2013-07-04 04:19:00,65.3,65.0,30.16,ESE,102,0.0,2.0,98,0.00,,,0.00,weatherlink.com 1.10,2013-07-04 08:19:00,
2013-07-04 04:34:00,65.4,65.0,30.14,NNW,341,0.0,7.0,99,0.00,,,0.00,weatherlink.com 1.10,2013-07-04 08:34:00,
2013-07-04 04:49:00,65.5,65.0,30.14,SE,141,0.0,4.0,99,0.00,,,0.00,weatherlink.com 1.10,2013-07-04 08:49:00,
2013-07-04 05:04:00,65.5,65.0,30.16,SE,143,1.0,3.0,99,0.00,,,0.00,weatherlink.com 1.10,2013-07-04 09:04:00,
2013-07-04 05:19:00,65.4,65.0,30.16,East,89,0.0,4.0,99,0.00,,,0.00,weatherlink.com 1.10,2013-07-04 09:19:00,
2013-07-04 05:34:00,65.2,65.0,30.16,ESE,102,3.0,4.0,98,0.00,,,0.00,weatherlink.com 1.10,2013-07-04 09:34:00,
2013-07-04 05:49:00,65.2,65.0,30.16,ENE,77,2.0,3.0,98,0.00,,,0.00,weatherlink.com 1.10,2013-07-04 09:49:00,
2013-07-04 06:04:00,65.4,65.0,30.16,ENE,77,0.0,2.0,99,0.00,,,0.00,weatherlink.com 1.10,2013-07-04 10:04:00,
2013-07-04 06:19:00,65.4,65.0,30.17,ENE,77,0.0,1.0,98,0.00,,,0.00,weatherlink.com 1.10,2013-07-04 10:19:00,
2013-07-04 06:34:00,65.4,65.0,30.17,ENE,77,0.0,2.0,99,0.00,,,0.00,weatherlink.com 1.10,2013-07-04 10:34:00,
2013-07-04 06:49:00,65.6,65.0,30.17,SW,215,0.0,5.0,99,0.00,,,0.00,weatherlink.com 1.10,2013-07-04 10:49:00,
2013-07-04 07:04:00,65.9,65.0,30.18,ESE,102,0.0,2.0,98,0.00,,,0.00,weatherlink.com 1.10,2013-07-04 11:04:00,
2013-07-04 07:19:00,66.0,66.0,30.18,East,91,0.0,3.0,98,0.00,,,0.00,weatherlink.com 1.10,2013-07-04 11:19:00,
2013-07-04 07:34:00,66.1,66.0,30.19,ESE,106,0.0,3.0,98,0.00,,,0.00,weatherlink.com 1.10,2013-07-04 11:34:00,
2013-07-04 07:49:00,66.2,66.0,30.19,ESE,106,0.0,1.0,98,0.00,,,0.00,weatherlink.com 1.10,2013-07-04 11:49:00,
2013-07-04 08:04:00,66.5,66.0,30.20,ENE,65,0.0,2.0,98,0.00,,,0.00,weatherlink.com 1.10,2013-07-04 12:04:00,
2013-07-04 08:19:00,66.6,66.0,30.21,ENE,65,0.0,1.0,98,0.00,,,0.00,weatherlink.com 1.10,2013-07-04 12:19:00,
2013-07-04 08:34:00,66.7,66.0,30.21,ENE,65,1.0,2.0,98,0.00,,,0.00,weatherlink.com 1.10,2013-07-04 12:34:00,
2013-07-04 08:49:00,66.9,67.0,30.20,ENE,65,0.0,2.0,99,0.00,,,0.00,weatherlink.com 1.10,2013-07-04 12:49:00,
2013-07-04 09:04:00,67.0,67.0,30.20,ENE,65,0.0,1.0,98,0.00,,,0.00,weatherlink.com 1.10,2013-07-04 13:04:00,
2013-07-04 09:19:00,67.3,67.0,30.21,NE,49,1.0,2.0,99,0.00,,,0.00,weatherlink.com 1.10,2013-07-04 13:19:00,
2013-07-04 09:34:00,68.3,68.0,30.20,NE,49,2.0,3.0,99,0.00,,,0.00,weatherlink.com 1.10,2013-07-04 13:34:00,
2013-07-04 09:49:00,68.7,68.0,30.20,SE,127,0.0,4.0,98,0.00,,,0.00,weatherlink.com 1.10,2013-07-04 13:49:00,
2013-07-04 10:04:00,69.0,69.0,30.20,ESE,115,0.0,2.0,98,0.00,,,0.00,weatherlink.com 1.10,2013-07-04 14:04:00,
2013-07-04 10:19:00,69.3,69.0,30.20,ESE,115,0.0,1.0,98,0.00,,,0.00,weatherlink.com 1.10,2013-07-04 14:19:00,
2013-07-04 10:34:00,69.7,69.0,30.20,East,95,0.0,2.0,97,0.00,,,0.00,weatherlink.com 1.10,2013-07-04 14:34:00,
2013-07-04 10:50:00,70.4,70.0,30.20,ENE,63,0.0,3.0,98,0.00,,,0.00,weatherlink.com 1.10,2013-07-04 14:50:00,
2013-07-04 11:05:00,70.5,70.0,30.20,East,81,0.0,2.0,97,0.00,,,0.00,weatherlink.com 1.10,2013-07-04 15:05:00,
2013-07-04 11:20:00,70.7,70.0,30.20,East,81,0.0,2.0,96,0.00,,,0.00,weatherlink.com 1.10,2013-07-04 15:20:00,
2013-07-04 11:35:00,71.1,70.0,30.19,East,81,0.0,2.0,97,0.00,,,0.00,weatherlink.com 1.10,2013-07-04 15:35:00,
2013-07-04 11:50:00,71.3,70.0,30.19,East,81,0.0,2.0,97,0.00,,,0.00,weatherlink.com 1.10,2013-07-04 15:50:00,
2013-07-04 12:05:00,71.6,71.0,30.19,East,81,0.0,2.0,97,0.00,,,0.00,weatherlink.com 1.10,2013-07-04 16:05:00,
2013-07-04 12:20:00,72.4,72.0,30.19,East,81,0.0,2.0,97,0.00,,,0.00,weatherlink.com 1.10,2013-07-04 16:20:00,
2013-07-04 12:35:00,73.7,73.0,30.18,SSW,196,0.0,4.0,96,0.00,,,0.00,weatherlink.com 1.10,2013-07-04 16:35:00,
2013-07-04 12:50:00,74.6,73.0,30.18,WSW,258,2.0,6.0,93,0.00,,,0.00,weatherlink.com 1.10,2013-07-04 16:50:00,
2013-07-04 13:05:00,74.9,73.0,30.17,SW,231,1.0,5.0,93,0.00,,,0.00,weatherlink.com 1.10,2013-07-04 17:05:00,
2013-07-04 13:20:00,76.3,73.0,30.16,SSW,197,1.0,6.0,90,0.00,,,0.00,weatherlink.com 1.10,2013-07-04 17:20:00,
2013-07-04 13:35:00,77.4,73.0,30.15,SW,226,0.0,3.0,87,0.00,,,0.00,weatherlink.com 1.10,2013-07-04 17:35:00,
2013-07-04 13:50:00,76.5,73.0,30.14,WNW,303,3.0,7.0,89,0.00,,,0.00,weatherlink.com 1.10,2013-07-04 17:50:00,
2013-07-04 14:05:00,76.6,74.0,30.14,NW,308,5.0,7.0,91,0.00,,,0.00,weatherlink.com 1.10,2013-07-04 18:05:00,
2013-07-04 14:20:00,77.2,74.0,30.13,West,272,4.0,6.0,90,0.00,,,0.00,weatherlink.com 1.10,2013-07-04 18:20:00,
2013-07-04 14:35:00,76.9,73.0,30.14,WNW,282,4.0,6.0,88,0.00,,,0.00,weatherlink.com 1.10,2013-07-04 18:35:00,
2013-07-04 14:50:00,76.4,73.0,30.14,WNW,283,0.0,3.0,90,0.00,,,0.00,weatherlink.com 1.10,2013-07-04 18:50:00,
2013-07-04 15:05:00,77.3,74.0,30.13,WNW,283,2.0,2.0,89,0.00,,,0.00,weatherlink.com 1.10,2013-07-04 19:05:00,
2013-07-04 15:20:00,78.2,74.0,30.12,NNE,32,2.0,3.0,88,0.00,,,0.00,weatherlink.com 1.10,2013-07-04 19:20:00,
2013-07-04 15:35:00,78.5,75.0,30.12,North,359,3.0,4.0,88,0.00,,,0.00,weatherlink.com 1.10,2013-07-04 19:35:00,
2013-07-04 15:50:00,79.4,75.0,30.11,NNE,28,0.0,5.0,85,0.00,,,0.00,weatherlink.com 1.10,2013-07-04 19:50:00,
2013-07-04 16:05:00,79.9,75.0,30.11,WNW,296,1.0,5.0,86,0.00,,,0.00,weatherlink.com 1.10,2013-07-04 20:05:00,
2013-07-04 16:20:00,80.7,76.0,30.10,ESE,102,1.0,4.0,84,0.00,,,0.00,weatherlink.com 1.10,2013-07-04 20:20:00,
2013-07-04 16:35:00,77.8,71.0,30.16,SW,216,4.0,22.0,80,0.00,,,0.00,weatherlink.com 1.10,2013-07-04 20:35:00,
2013-07-04 16:50:00,69.4,67.0,30.12,NW,324,4.0,4.0,91,0.00,,,0.00,weatherlink.com 1.10,2013-07-04 20:50:00,
2013-07-04 17:05:00,68.8,67.0,30.12,WNW,301,1.0,3.0,93,0.00,,,0.00,weatherlink.com 1.10,2013-07-04 21:05:00,
2013-07-04 17:20:00,69.2,68.0,30.13,WNW,302,1.0,2.0,95,0.00,,,0.00,weatherlink.com 1.10,2013-07-04 21:20:00,
2013-07-04 17:35:00,69.5,68.0,30.13,NNE,32,1.0,5.0,94,0.00,,,0.00,weatherlink.com 1.10,2013-07-04 21:35:00,
2013-07-04 17:50:00,70.0,69.0,30.13,NNE,31,2.0,4.0,95,0.00,,,0.00,weatherlink.com 1.10,2013-07-04 21:50:00,
2013-07-04 18:05:00,71.1,70.0,30.13,NNE,20,1.0,3.0,96,0.00,,,0.00,weatherlink.com 1.10,2013-07-04 22:05:00,
2013-07-04 18:20:00,71.8,71.0,30.13,NNE,20,1.0,2.0,96,0.00,,,0.00,weatherlink.com 1.10,2013-07-04 22:20:00,
2013-07-04 18:35:00,71.9,71.0,30.12,NNE,20,0.0,2.0,95,0.00,,,0.00,weatherlink.com 1.10,2013-07-04 22:35:00,
2013-07-04 18:50:00,71.7,71.0,30.13,NNE,19,1.0,3.0,96,0.00,,,0.00,weatherlink.com 1.10,2013-07-04 22:50:00,
2013-07-04 19:05:00,71.2,70.0,30.11,NNE,26,0.0,8.0,96,0.00,,,0.00,weatherlink.com 1.10,2013-07-04 23:05:00,
2013-07-04 19:20:00,-999.0,-99.9,0.00,North,-999,-999.0,-999.0,-999,0.00,,,0.00,weatherlink.com 1.10,2013-07-04 23:20:00,
2013-07-04 19:32:00,69.6,-99.9,30.14,WNW,282,7.0,9.0,-999,0.00,,,0.00,weatherlink.com 1.10,2013-07-04 23:32:00,
2013-07-04 19:47:00,69.2,68.0,30.16,SSW,211,5.0,9.0,95,0.00,,,0.00,weatherlink.com 1.10,2013-07-04 23:47:00,
2013-07-04 20:02:00,68.6,68.0,30.15,WNW,290,4.0,9.0,97,0.00,,,0.00,weatherlink.com 1.10,2013-07-05 00:02:00,
2013-07-04 20:18:00,68.0,67.0,30.17,West,277,10.0,11.0,96,0.00,,,0.00,weatherlink.com 1.10,2013-07-05 00:18:00,
2013-07-04 20:33:00,67.8,67.0,30.16,WNW,291,0.0,3.0,98,0.00,,,0.00,weatherlink.com 1.10,2013-07-05 00:33:00,
2013-07-04 20:48:00,67.6,67.0,30.16,ESE,118,1.0,4.0,98,0.00,,,0.00,weatherlink.com 1.10,2013-07-05 00:48:00,
2013-07-04 21:03:00,67.6,67.0,30.16,SE,139,2.0,5.0,98,0.00,,,0.00,weatherlink.com 1.10,2013-07-05 01:03:00,
2013-07-04 21:18:00,67.7,67.0,30.15,ESE,108,1.0,4.0,98,0.00,,,0.00,weatherlink.com 1.10,2013-07-05 01:18:00,
2013-07-04 21:33:00,67.8,67.0,30.15,ESE,118,0.0,3.0,98,0.00,,,0.00,weatherlink.com 1.10,2013-07-05 01:33:00,
2013-07-04 21:48:00,67.9,68.0,30.18,SSE,166,1.0,6.0,99,0.00,,,0.00,weatherlink.com 1.10,2013-07-05 01:48:00,
2013-07-04 22:03:00,68.1,68.0,30.19,SSW,203,0.0,3.0,99,0.00,,,0.00,weatherlink.com 1.10,2013-07-05 02:03:00,
2013-07-04 22:18:00,68.1,68.0,30.19,South,179,2.0,2.0,99,0.00,,,0.00,weatherlink.com 1.10,2013-07-05 02:18:00,
2013-07-04 22:33:00,68.3,68.0,30.18,South,179,0.0,1.0,99,0.00,,,0.00,weatherlink.com 1.10,2013-07-05 02:33:00,
2013-07-04 22:48:00,68.1,68.0,30.18,ENE,60,0.0,3.0,99,0.00,,,0.00,weatherlink.com 1.10,2013-07-05 02:48:00,
2013-07-04 23:03:00,68.1,68.0,30.18,ENE,60,0.0,2.0,99,0.00,,,0.00,weatherlink.com 1.10,2013-07-05 03:03:00,
2013-07-04 23:18:00,68.2,68.0,30.18,ESE,103,1.0,1.0,99,0.00,,,0.00,weatherlink.com 1.10,2013-07-05 03:18:00,
2013-07-04 23:33:00,68.0,68.0,30.18,ESE,102,0.0,1.0,99,0.00,,,0.00,weatherlink.com 1.10,2013-07-05 03:33:00,
2013-07-04 23:48:00,68.1,68.0,30.18,ENE,74,1.0,3.0,99,0.00,,,0.00,weatherlink.com 1.10,2013-07-05 03:48:00,